RH
67 59 63 67 74 88 93 96 96 90 91 96 90 90 93 90 88 89 85 86 84 84 85 87 89 88 89 83 80 80 79 87 86 76 71 71 69 72 75 97 93 98 98 79
86 84 78 80 81 96 95 98 97 93 95 93 93 94 94 94 93 93 87 86 85 88 91 96 90 89 84 85 81 80 82 87 86 72 65 63 62 64 69 76 91 92 97 81
99 95 89 92 90 97 98 98 97 94 92 93 96 97 96 97 94 90 87 88 90 92 92 92 91 90 88 83 84 83 84 82 81 82 79 74 78 77 74 76 96 91 93 89
97 98 97 97 97 97 99 98 95 92 95 92 98 98 97 98 98 97 92 90 89 94 92 92 92 93 92 90 86 85 92 92 86 82 81 80 79 79 75 75 71 78 76 69
99 97 99 98 99 99 98 98 97 98 95 96 98 98 95 96 97 97 94 90 92 94 94 95 96 96 97 96 94 87 88 96 89 88 82 80 76 71 70 66 66 65 61 61
94 99 99 98 97 98 98 95 97 98 98 98 99 95 95 97 97 96 96 96 96 93 96 97 96 98 97 97 97 98 97 97 97 85 82 79 84 72 65 60 57 63 71 76
96 98 97 99 98 99 97 96 98 98 97 98 97 96 96 98 98 98 98 98 96 95 96 98 97 97 96 94 93 92 97 95 92 94 83 93 66 53 53 56 62 65 70 72
97 98 97 99 98 96 97 99 97 98 98 97 97 97 97 98 97 97 97 97 97 93 92 90 86 81 77 77 73 68 71 76 84 89 81 70 57 44 60 68 71 78 82 79
96 99 99 99 97 95 97 98 98 92 95 96 96 97 98 98 97 97 97 95 96 93 89 86 90 77 64 57 53 50 48 57 69 75 85 86 62 74 75 74 81 74 80 72
97 98 99 98 98 98 98 97 96 94 97 98 97 97 97 96 96 94 90 86 85 81 82 83 75 63 46 49 40 40 41 52 68 77 87 86 92 96 90 96 87 74 69 63
99 96 95 98 98 98 94 93 94 96 97 94 95 89 92 90 85 85 78 77 73 67 63 57 50 49 41 48 48 58 69 77 80 85 94 89 84 78 81 73 67 66 61 56
96 97 98 98 97 92 92 94 96 92 87 89 87 83 76 69 70 64 61 52 42 36 38 40 41 47 48 47 56 45 61 69 82 79 72 62 64 69 63 61 62 67 71 59
94 98 97 93 93 92 88 86 80 75 73 75 68 63 61 56 52 42 34 32 29 29 28 35 41 43 41 47 43 42 47 51 60 67 59 64 61 62 68 78 83 87 85 85
95 96 92 89 82 72 69 64 63 57 53 56 49 42 29 20 17 18 18 23 28 30 31 35 42 43 37 48 53 55 50 57 63 72 72 71 76 79 85 90 94 96 99 99
81 74 70 65 60 57 52 48 45 41 39 37 29 23 18 13 14 16 20 25 29 30 33 38 41 40 46 52 54 51 50 54 68 70 66 75 78 83 88 90 93 96 96 93
61 61 54 47 43 39 37 40 34 26 17 17 27 18 19 20 22 21 22 22 23 25 28 31 34 34 44 57 61 44 49 56 57 62 66 75 80 88 91 96 96 92 87 78
52 47 40 36 30 24 22 22 25 20 15 17 28 31 35 39 36 37 39 39 38 39 43 43 40 40 47 56 53 43 50 56 62 68 77 82 86 88 87 84 82 80 78 73
43 35 29 25 21 16 17 19 21 20 20 25 35 40 39 40 40 44 48 51 54 54 51 50 53 52 57 61 47 51 59 64 70 75 81 82 80 81 81 77 74 73 71 69
31 23 16 11 10 14 20 17 19 21 26 35 40 42 50 41 45 49 51 52 53 52 58 59 58 62 64 50 51 55 62 70 75 77 75 75 77 78 76 74 75 73 69 63
15 10 11 16 24 19 15 17 22 25 30 35 41 40 47 42 48 48 48 52 55 56 51 55 59 58 56 58 58 58 69 74 79 79 76 79 80 78 76 74 74 73 72 72
15 16 22 28 26 22 24 28 32 34 37 38 41 44 45 44 45 51 53 60 58 62 59 64 65 58 52 56 59 69 78 81 87 84 85 86 87 86 87 86 83 84 83 82
20 19 25 25 25 27 34 39 39 42 44 43 45 44 45 48 50 52 55 59 63 61 67 75 73 76 72 74 81 87 90 92 87 87 90 92 91 89 90 91 90 87 84 82
17 19 25 30 32 38 38 43 46 47 45 46 49 52 47 54 58 60 65 69 70 65 76 77 81 90 92 95 96 97 97 94 95 93 92 92 91 90 91 92 93 91 85 79
22 26 33 36 39 43 47 52 51 49 53 55 54 49 57 64 68 67 65 63 64 70 73 84 95 96 96 96 97 95 90 89 93 93 94 91 91 87 84 87 87 84 80 79
29 31 41 43 47 50 47 50 55 57 59 57 58 65 66 69 68 69 68 71 73 74 86 91 95 95 98 92 90 88 89 89 86 86 83 84 82 79 76 76 76 76 76 79
41 40 45 48 47 49 47 48 53 56 57 55 59 66 68 68 68 71 70 71 73 83 89 89 91 93 92 87 84 82 81 77 75 74 73 75 76 77 76 76 78 79 81 84
47 46 45 46 46 46 45 43 43 47 50 55 60 64 63 64 68 67 68 76 79 82 85 87 90 87 79 73 67 60 60 61 62 60 63 65 66 68 71 71 71 74 80 84